STARLINK-33839, 64113

Orbit data source: Space-Track

STARLINK-33839, 64113 is a payload satellite owned by SpaceX/Seattle (US) in LEO that was launched on Fri, 23 May 2025 UTC via an FALCON 9 launch vehicle from the Air Force Western Test Range (AFWTR). Payload-class satellites include a variety of spacecraft equipped with specific instruments for various scientific and technological missions. These include communications satellites like Starlink; space stations such as the ISS; scientific satellites like the Hubble; Earth observation satellites from companies like Planet Labs, Umbra, and HawkEye 360; GPS; miniature CubeSats for education and research; and military/defense satellites.

Loading next visibility...
Identifier
64113, 2025-110T
Orbit
LEO
Country
Flag of USUS
Related business
Manufacturer
SpaceX/Seattle
Mission
Operational Commercial Communications
Bus & Motor
STARLINK V2MO, Unknown motor
Mass
575 kg wet, ~530 kg dry
Launch date (UTC)
2025-05-23 (1 year ago)
Launch vehicle
FALCON 9
Launch site
Air Force Western Test Range (AFWTR)
Object type
Payload
Rocket body
Debris
Shape & HBR
Box + 2 Pan, 17.7 m
Radar Cross Section
36.964 m², Large (>1 m²)

Expand to show TLE details & history
Last TLE update: 9 hours ago

TLE from 9 hours ago
0 STARLINK-33839
1 64113U 25110T   26171.45571757  .00023888  00000-0  77861-3 0  9993
2 64113  53.1607 268.9138 0001641  58.9022 301.2141 15.31718891 61625
Epoch: 2026-06-20T10:56Z
TLE epoch observation values (Epoch: 2026-06-20T10:56:13.998Z)
Latitude
0.00006°
Longitude
-163.81457°
Altitude
471.002 km
Speed
7.632 km/s
True Right ascension
17h 55m 39s
True Declination
0° 00' 00"
Sunlit
Object was in full shadow at epoch
Visualization orbit readout
Latitude
Unknown
Longitude
Unknown
Altitude
Unknown
Speed
Unknown
Apparent Right ascension
Unknown
Apparent Declination
Unknown
Sunlit
N/A
Visualization observer readout
Local Sidereal Time
07:13:08
Azimuth
Unknown
Elevation
Unknown
Doppler factor
Unknown
Orbital elements
Apogee altitude
472.064 km
Perigee altitude
469.816 km
Semi-major axis
6,849.077 km
Eccentricity
0.00016
Inclination
53.1607°
RAAN
268.9138°
Arg. of periapsis
58.9022°
True anomaly
301.19802°
Mean anomaly
301.2141°
Eccentric anomaly
301.20606°
Mean motion
3.82909 °/min
Orbital period
94.02 mins
BSTAR
0.00077861
Loading maneuver chart data...
Computing Atmospheric mass density...
Loading historical data...
Loading historical data...
Loading historical data...
Loading historical data...
Loading historical data...
Loading historical data...
Loading historical data...

Documentation

Showing up to 5 results
|